Location: Fort Worth, Tx
(32.7431°N, 97.3695°W)
Time: 18:12:21
(UTC-04:00)

Transit 4A - Pass Details

Date: 05 March 2024
Orbit: 871 x 972 km, 66.8° (Epoch: 21 April)

Event Time Altitude Azimuth Distance (km) Brightness Sun altitude
Rises 09:05:55 0° 345° (NNW) 3,474 10.6 14.5°
Reaches altitude 10° 09:08:44 10° 355° (N) 2,526 10.0 15.0°
Maximum altitude 09:13:49 31° 57° (ENE) 1,491 9.7 16.1°
Drops below altitude 10° 09:18:54 10° 118° (ESE) 2,515 12.5 17.1°
Sets 09:21:40 0° 128° (SE) 3,456 12.2 17.6°
